Regional Weather Roundup
Issued by NWS Goodland, KS

Home | Current Version | Previous Version | Graphics & Text | Print | Product List | Glossary On
Versions: 1 2 3 4 5 6 7 8 9 10 11 12 13 14 15 16 17 18 19 20 21 22 23 24 25 26 27 28 29 30 31 32 33 34 35 36 37 38 39 40 41 42 43 44 45 46 47 48 49 50
000
ASUS43 KGLD 241008
RWRGLD

GOODLAND FORECAST AREA HOURLY WEATHER ROUNDUP
NATIONAL WEATHER SERVICE GOODLAND KS
400 AM MDT THU MAY 24 2018

...OFFICIAL OBSERVATIONS...

CITY           SKY/WX    TMP DP  RH WIND       PRES   REMARKS
GOODLAND KS    CLOUDY    61  54  77 S22G30    29.96F
HILL CITY KS   PTCLDY    65  58  78 CALM      30.00S
IMPERIAL NEB   CLOUDY    59  56  89 CALM      29.97R
MCCOOK NEB     CLOUDY    64  57  78 S7        29.97S
AKRON CO       PTCLDY    55  52  89 N6        30.01R
BURLINGTON CO  CLOUDY    57  51  80 SE8       30.00R
LIMON CO       CLEAR     50  47  89 W8        30.05R
$$

...UNOFFICIAL OBSERVATIONS...

CITY           SKY/WX    TMP DP  RH WIND       PRES   REMARKS
COLBY KS       CLOUDY    64  55  72 S21       29.99F
NORTON KS      CLEAR     64  55  72 S8        29.98
SHARON SPRINGS   N/A     62  55  78 MISG        N/A
KIT CARSON CO    N/A     57  51  80 MISG        N/A
YUMA CO        FAIR      57  46  67 W6        29.98S
$$




USA.gov is the U.S. government's official web portal to all federal, state and local government web resources and services.